Preview of NWS' New Version of Forecast
This preview is not operational and should not be used for support decisions.

Regional Weather Roundup (RWR)

Issued by National Weather Service (NWS)

                            
000
ASUS42 KTBW 252116
RWRFL 
FLORIDA REGIONAL WEATHER ROUNDUP
NATIONAL WEATHER SERVICE TAMPA BAY RUSKIN FL
500 PM EDT SAT MAY 25 2019

NOTE: "FAIR" INDICATES FEW OR NO CLOUDS BELOW 12,000 FEET WITH NO
SIGNIFICANT WEATHER AND/OR OBSTRUCTIONS TO VISIBILITY.

FLZ001>010-012>015-112-114-115-252200-
PANHANDLE FLORIDA
  
CITY           SKY/WX    TMP DP  RH WIND       PRES   REMARKS
PENSACOLA      FAIR      94  62  34 E7        30.10F                  
PENSACOLA NAS  FAIR      92  65  40 VRB5      30.10F                  
MILTON NAS     FAIR      94  66  39 MISG      30.09F HX  97           
CRESTVIEW      FAIR      98  61  29 VRB3      30.10F HX  98           
DUKE FIELD     FAIR      94  62  34 CALM      30.08F HX  95           
VALPARAISO     FAIR      94  64  37 S8        30.08F HX  96           
PANAMA CITY    FAIR      96  65  35 CALM      30.06F HX  98           
APALACHICOLA   FAIR      90  73  57 S10       30.09F HX  98           

STATION/POSITION SKY/WX   TEMP    WIND        PRES    WAVE   SWELL
                          AIR SEA DIR/SP/G            HT/PER HT/PER
                          (F)     (DEG/KT/KT) (MB)    (FT/S) (FT/S)
30.1N   87.6W                                   N/A     2/ 7
29.2N   88.2W                      50/ 10/ 12 1020.1F   3/ 7   3/ 7
PANAMA CITY BEAC           83 85  270/ 11/ 12 1019.3F
TOWER C          NOT AVBL

$$
FLZ011-016>038-118-127-128-134-139-239-252200-
NORTH FLORIDA
  
CITY           SKY/WX    TMP DP  RH WIND       PRES   REMARKS
MARIANNA       FAIR      98  60  28 NW5       30.07F HX  98           
TALLAHASSEE    PTSUNNY   96  67  38 N5        30.07F HX 100           
PERRY          PTSUNNY   98  64  32 E5        30.08S HX 100           
LIVE OAK       MOSUNNY   97  63  32 VRB5      30.07F HX  98           
CROSS CITY     FAIR      97  64  34 E9        30.07F HX  99           
LAKE CITY      FAIR      95  63  34 SE8       30.09S HX  96           
GAINESVILLE    FAIR      97  65  34 E13G21    30.10F HX  99           
WILLISTON      FAIR      95  62  34 E6        30.07F HX  95           
PALATKA        FAIR      95  66  38 E12       30.11S HX  98           
MAYPORT NAS    FAIR      90  70  51 SE10      30.11S HX  95           
JACKSONVILLE   FAIR      94  65  38 E12       30.08F HX  96           
JAX NAS        FAIR      95  63  34 E14       30.10F HX  96           
JAX CECIL      MOSUNNY  100  63  28 E6        30.08F HX 102           
FERNANDINA BEA FAIR      88  71  56 E8        30.11S                  
ST AUGUSTINE   FAIR      87  70  56 SE12      30.13F                  

STATION/POSITION SKY/WX   TEMP    WIND        PRES    WAVE   SWELL
                          AIR SEA DIR/SP/G            HT/PER HT/PER
                          (F)     (DEG/KT/KT) (MB)    (FT/S) (FT/S)
SHELL POINT      NOT AVBL
KEATON BEACH               85     260/  9/ 10 1018.8F
CEDAR KEY                  85     260/  8/ 12 1018.7F
FERNANDINA                        110/  4/  7   N/A
30.7N   81.3W                 83                N/A     2/ 8
MAYPORT                    87 81  130/  7/  9 1019.8F
31.4N   80.9W              81 81  170/  8/ 10 1019.2F   1/ 7   2/ 7
ST AUGUSTINE               81 83  130/  8/  9 1020.3F

$$
FLZ040-043>046-052-053-057-058-063-144-252200-
INTERIOR CENTRAL FLORIDA
  
CITY           SKY/WX    TMP DP  RH WIND       PRES   REMARKS
OCALA          FAIR      94  65  38 E9        30.09F HX  96           
LEESBURG       FAIR      93  62  35 E14       30.09F                  
SANFORD        FAIR      91  66  43 E15       30.11S                  
ORLANDO EXEC   FAIR      90  65  43 E13G20    30.11S                  
ORLANDO INTL   FAIR      91  64  40 E16       30.10S                  
KISSIMMEE      FAIR      89  68  49 E16       30.11S                  
WINTER HAVEN   FAIR      92  65  40 E17       30.10S                  
LAKELAND       MOSUNNY   91  66  43 E14       30.08F                  
SEBRING        FAIR      90  66  45 E18       30.09R                  
OKEECHOBEE     FAIR      84  64  51 E9G16     30.09S                  

$$
FLZ041-047-054-059-064-141-147-252200-
EAST CENTRAL FLORIDA
  
CITY           SKY/WX    TMP DP  RH WIND       PRES   REMARKS
ORMOND BEACH   SUNNY     84  66  54 E7        30.13S                  
DAYTONA BEACH  FAIR      87  68  52 E9        30.13S                  
DELAND         FAIR      90  66  45 E13       30.11S                  
NEW SMYRNA BEA SUNNY     84  68  58 E7        30.14F                  
TITUSVILLE     MOSUNNY   88  70  55 E10       30.13S                  
CAPE CANAVERAL FAIR      83  62  48 E8        30.12S                  
PATRICK AFB    FAIR      83  72  68 E12       30.12S                  
MELBOURNE      FAIR      84  71  65 E13       30.11F                  
VERO BEACH     FAIR      82  69  64 E13       30.12S                  
FT PIERCE      FAIR      83  67  58 E14G22    30.11F                  
STUART         MOSUNNY   82  64  54 E16G23    30.12F                  

STATION/POSITION SKY/WX   TEMP    WIND        PRES    WAVE   SWELL
                          AIR SEA DIR/SP/G            HT/PER HT/PER
                          (F)     (DEG/KT/KT) (MB)    (FT/S) (FT/S)
28.5N   80.2W              80      60/ 10/ 12 1020.6S   3/ 8   2/ 8
28.9N   78.5W              79      30/  8/ 10 1020.9
TRIDENT PIER               82 83   60/ 10/ 14 1021.6S
28.4N   80.5W                 81                N/A     2/ 8
27.5N   80.2W                 78                N/A     3/11   2/11

$$
FLZ050-056-061-142-242-148-248-149-249-151-251-155-255-
160-260-252200-
WEST CENTRAL FLORIDA
  
CITY           SKY/WX    TMP DP  RH WIND       PRES   REMARKS
CRYSTAL RIVER  PTSUNNY   90  70  51 SE9       30.07F HX  95           
INVERNESS      FAIR      95  68  41 E9        30.09S HX  99           
BROOKSVILLE    FAIR      95  65  37 NE16G23   30.07F HX  97           
CLEARWATER AIR FAIR      86  70  58 NW8       30.06F                  
ST PETE CLEARW FAIR      91  68  46 NE8       30.06F HX  95           
TAMPA INTL     PTSUNNY   93  64  38 E10G20    30.07S                  
TAMPA EXEC     FAIR      95  66  38 E12       30.07F HX  98           
PLANT CITY     FAIR      93  64  38 E9G16     30.09F HX  95           
MACDILL AFB    LGT RAIN  93  66  40 E12       30.06F HX  96           
PETER O KNIGHT CLOUDY    95  64  36 E13G18    30.07S HX  97           
ST PETERSBURG  FAIR      88  70  55 E10       30.05F                  
SARASOTA       FAIR      95  64  35 E14G20    30.03F HX  97           
VENICE         PTSUNNY   95  63  34 NE10G17   30.05S HX  96           

STATION/POSITION SKY/WX   TEMP    WIND        PRES    WAVE   SWELL
                          AIR SEA DIR/SP/G            HT/PER HT/PER
                          (F)     (DEG/KT/KT) (MB)    (FT/S) (FT/S)
27.3N   84.2W                 80                N/A     3/ 6
CLEARWATER BEACH           83 86  320/  9/ 12 1018.5F
MIDDLE TAMPA BAY           88      90/ 10/ 13 1018.0F
VENICE                     85 82  280/  6/  8 1017.4F

$$
FLZ066-069-070-075>078-162-262-165-265-252200-
SOUTHWEST FLORIDA AND KEYS
  
CITY           SKY/WX    TMP DP  RH WIND       PRES   REMARKS
PUNTA GORDA    FAIR      92  63  38 E18G26    30.05F                  
FT MYERS       FAIR      89  65  44 E15G23    30.03F                  
SOUTHWEST INTL LGT RAIN  90  65  43 E15G23    30.04F                  
NAPLES         FAIR      90  63  40 E17G26    30.03S                  
MARCO ISLAND   PTSUNNY   91  66  43 E12G20    30.05R                  
IMMOKALEE      FAIR      90  66  45 E17       30.03S                  
MARATHON       FAIR      86  66  51 E15G22    30.04S                  
KEY WEST NAS   FAIR      87  68  52 E16       30.03S                  
KEY WEST INTL  FAIR      84  69  60 E15       30.03S                  

STATION/POSITION SKY/WX   TEMP    WIND        PRES    WAVE   SWELL
                          AIR SEA DIR/SP/G            HT/PER HT/PER
                          (F)     (DEG/KT/KT) (MB)    (FT/S) (FT/S)
NAPLES                     89 83              1017.1F
DRY TORTUGAS               81      80/ 15/ 17 1017.1F
SAND KEY                   80                 1016.8F
SOMBRERO KEY               80                 1016.4F

$$
FLZ067-068-071>074-168-172>174-252200-
SOUTHEAST FLORIDA 
  
CITY           SKY/WX    TMP DP  RH WIND       PRES   REMARKS
W PALM BEACH   FAIR      83  68  60 NE15      30.10S                  
BOCA RATON     MOSUNNY   84  68  58 E16G23    30.08F                  
FT LAUDER-EXEC PTSUNNY   83  68  60 NE14G24   30.07S                  
FT LAUDERDALE  FAIR      83  67  58 E17       30.06S                  
POMPANO BEACH  FAIR      84  68  58 NE17G24   30.07F                  
PEMBROKE PINES FAIR      83  65  54 E20       30.08S                  
OPA LOCKA      FAIR      85  65  51 E20G29    30.07S                  
MIAMI          FAIR      84  64  50 E12G26    30.07S                  
WEST KENDALL   LGT RAIN  85  64  49 E18G24    30.05S                  
HOMESTEAD      FAIR      83  68  60 NE18      30.05S                  

STATION/POSITION SKY/WX   TEMP    WIND        PRES    WAVE   SWELL
                          AIR SEA DIR/SP/G            HT/PER HT/PER
                          (F)     (DEG/KT/KT) (MB)    (FT/S) (FT/S)
PORT EVERGLADES            80      70/ 11/ 17 1018.4F
VIRGINIA KEY               80 83   50/ 14/ 18 1017.4F
LAKE WORTH                 79 81              1020.0F
SETTLEMENT POINT           78      60/ 16/ 18 1019.2F

$$